| time (UTC) | temp F | wind direction | speed MPH | gust MPH | rain 1hr in | rain 24hr in | rain mn in | humidity % | barometer mb |
| 20260505003647 | 59 | 337 | 0.0 | 0.0 | 0.00 | 0.00 | 0.00 | 65 | 997.8 |
| 20260505003348 | 59 | 45 | 0.0 | 0.0 | 0.00 | 0.00 | 0.00 | 65 | 997.8 |
| 20260505003048 | 59 | 292 | 0.0 | 0.0 | 0.00 | 0.00 | 0.00 | 65 | 997.8 |
| 20260505002448 | 59 | 337 | 0.0 | 0.0 | 0.00 | 0.00 | 0.00 | 65 | 997.8 |
| 20260505002148 | 59 | 90 | 5.0 | 5.0 | 0.00 | 0.00 | 0.00 | 65 | 997.8 |
| 20260505001847 | 59 | 45 | 2.0 | 2.0 | 0.00 | 0.00 | 0.00 | 65 | 997.8 |
| 20260505001548 | 59 | 90 | 3.0 | 3.0 | 0.00 | 0.00 | 0.00 | 65 | 997.8 |
| 20260505001247 | 59 | 45 | 4.0 | 4.0 | 0.00 | 0.00 | 0.00 | 65 | 997.8 |
| 20260505000947 | 59 | 337 | 1.0 | 1.0 | 0.00 | 0.00 | 0.00 | 65 | 997.8 |
| 20260505000647 | 59 | 45 | 0.0 | 0.0 | 0.00 | 0.00 | 0.00 | 65 | 997.8 |
| 20260505000347 | 59 | 90 | 0.0 | 0.0 | 0.00 | 0.00 | 0.00 | 65 | 997.8 |
| 20260505000047 | 59 | 45 | 0.0 | 0.0 | 0.00 | 0.00 | 0.00 | 65 | 998.1 |
| 20260504235747 | 59 | 45 | 1.0 | 1.0 | 0.00 | 0.00 | 0.00 | 65 | 998.1 |
| 20260504235450 | 59 | 337 | 2.0 | 2.0 | 0.00 | 0.00 | 0.00 | 65 | 998.1 |
| 20260504235147 | 59 | 45 | 0.0 | 0.0 | 0.00 | 0.00 | 0.00 | 65 | 998.1 |
| 20260504234847 | 59 | 45 | 0.0 | 0.0 | 0.00 | 0.00 | 0.00 | 64 | 998.1 |
| 20260504234547 | 59 | 0 | 2.0 | 2.0 | 0.00 | 0.00 | 0.00 | 65 | 998.1 |
| 20260504234248 | 59 | 22 | 0.0 | 0.0 | 0.00 | 0.00 | 0.00 | 65 | 998.3 |
| 20260504233947 | 59 | 22 | 0.0 | 0.0 | 0.00 | 0.00 | 0.00 | 65 | 998.3 |
| 20260504233650 | 59 | 0 | 0.0 | 0.0 | 0.00 | 0.00 | 0.00 | 65 | 998.3 |
| 20260504233347 | 59 | 45 | 2.0 | 2.0 | 0.00 | 0.00 | 0.00 | 64 | 998.3 |
| 20260504233047 | 60 | 337 | 0.0 | 0.0 | 0.00 | 0.00 | 0.00 | 64 | 998.3 |
| 20260504232748 | 60 | 0 | 0.0 | 0.0 | 0.00 | 0.00 | 0.00 | 63 | 998.3 |
| 20260504232447 | 60 | 67 | 0.0 | 0.0 | 0.00 | 0.00 | 0.00 | 64 | 998.3 |
| 20260504232146 | 60 | 0 | 0.0 | 0.0 | 0.00 | 0.00 | 0.00 | 63 | 998.3 |
| 20260504231850 | 60 | 0 | 0.0 | 0.0 | 0.00 | 0.00 | 0.00 | 63 | 998.3 |
| 20260504231548 | 60 | 45 | 0.0 | 0.0 | 0.00 | 0.00 | 0.00 | 63 | 998.6 |
| 20260504231248 | 60 | 90 | 0.0 | 0.0 | 0.00 | 0.00 | 0.00 | 63 | 998.8 |
| 20260504230946 | 60 | 67 | 0.0 | 0.0 | 0.00 | 0.00 | 0.00 | 63 | 998.8 |
| 20260504230648 | 60 | 0 | 0.0 | 0.0 | 0.00 | 0.00 | 0.00 | 63 | 998.8 |
| 20260504230350 | 60 | 337 | 0.0 | 0.0 | 0.00 | 0.00 | 0.00 | 63 | 998.8 |
| 20260504230048 | 60 | 22 | 2.0 | 2.0 | 0.00 | 0.00 | 0.00 | 62 | 998.8 |
| 20260504225747 | 60 | 337 | 0.0 | 0.0 | 0.00 | 0.00 | 0.00 | 63 | 998.8 |
| 20260504225447 | 60 | 315 | 0.0 | 0.0 | 0.00 | 0.00 | 0.00 | 63 | 998.8 |
| 20260504225147 | 60 | 225 | 0.0 | 0.0 | 0.00 | 0.00 | 0.00 | 63 | 998.8 |
| 20260504224848 | 60 | 0 | 0.0 | 0.0 | 0.00 | 0.00 | 0.00 | 63 | 999.1 |
| 20260504224247 | 60 | 337 | 0.0 | 0.0 | 0.00 | 0.00 | 0.00 | 63 | 999.1 |
| 20260504223947 | 60 | 67 | 0.0 | 0.0 | 0.00 | 0.00 | 0.00 | 63 | 999.1 |
| 20260504223646 | 60 | 90 | 0.0 | 0.0 | 0.00 | 0.00 | 0.00 | 63 | 999.1 |
| 20260504223047 | 60 | 337 | 0.0 | 0.0 | 0.00 | 0.00 | 0.00 | 63 | 999.1 |
| 20260504222747 | 61 | 90 | 0.0 | 0.0 | 0.00 | 0.00 | 0.00 | 63 | 999.1 |
| 20260504222447 | 61 | 337 | 0.0 | 0.0 | 0.00 | 0.00 | 0.00 | 63 | 999.1 |
| 20260504222146 | 61 | 45 | 0.0 | 0.0 | 0.00 | 0.00 | 0.00 | 63 | 999.1 |
| 20260504221848 | 61 | 337 | 1.0 | 1.0 | 0.00 | 0.00 | 0.00 | 63 | 999.1 |
| 20260504221248 | 61 | 45 | 0.0 | 0.0 | 0.00 | 0.00 | 0.00 | 62 | 999.1 |
| 20260504220947 | 60 | 337 | 0.0 | 0.0 | 0.00 | 0.00 | 0.00 | 62 | 999.3 |
| 20260504220647 | 61 | 292 | 0.0 | 0.0 | 0.00 | 0.00 | 0.00 | 63 | 999.3 |
| 20260504220348 | 61 | 0 | 0.0 | 0.0 | 0.00 | 0.00 | 0.00 | 62 | 999.3 |
| 20260504220047 | 60 | 67 | 0.0 | 0.0 | 0.00 | 0.00 | 0.00 | 63 | 999.3 |
| 20260504215446 | 61 | 22 | 0.0 | 0.0 | 0.00 | 0.00 | 0.00 | 62 | 999.3 |
| 20260504215148 | 61 | 67 | 0.0 | 0.0 | 0.00 | 0.00 | 0.00 | 63 | 999.3 |
| 20260504214847 | 61 | 45 | 0.0 | 0.0 | 0.00 | 0.00 | 0.00 | 62 | 999.3 |
| 20260504214547 | 61 | 90 | 0.0 | 0.0 | 0.00 | 0.00 | 0.00 | 62 | 999.3 |
| 20260504214248 | 61 | 45 | 0.0 | 0.0 | 0.00 | 0.00 | 0.00 | 63 | 999.3 |
| 20260504213947 | 61 | 45 | 2.0 | 2.0 | 0.00 | 0.00 | 0.00 | 63 | 999.3 |
| 20260504213648 | 61 | 22 | 4.0 | 4.0 | 0.00 | 0.00 | 0.00 | 63 | 999.3 |
| 20260504213348 | 61 | 67 | 0.0 | 0.0 | 0.00 | 0.00 | 0.00 | 63 | 999.3 |
| 20260504213047 | 61 | 45 | 0.0 | 0.0 | 0.00 | 0.00 | 0.00 | 63 | 999.3 |
| 20260504212747 | 61 | 45 | 0.0 | 0.0 | 0.00 | 0.00 | 0.00 | 63 | 999.3 |
| 20260504212450 | 61 | 22 | 0.0 | 0.0 | 0.00 | 0.00 | 0.00 | 63 | 999.3 |
| 20260504212147 | 61 | 22 | 1.0 | 1.0 | 0.00 | 0.00 | 0.00 | 63 | 999.3 |
| 20260504211847 | 61 | 45 | 0.0 | 0.0 | 0.00 | 0.00 | 0.00 | 63 | 999.3 |
| 20260504211547 | 61 | 67 | 2.0 | 2.0 | 0.00 | 0.00 | 0.00 | 64 | 999.3 |
| 20260504211246 | 61 | 22 | 6.0 | 6.0 | 0.00 | 0.00 | 0.00 | 64 | 999.3 |
| 20260504210948 | 61 | 67 | 1.0 | 1.0 | 0.00 | 0.00 | 0.00 | 64 | 999.3 |
| 20260504210347 | 61 | 67 | 1.0 | 1.0 | 0.00 | 0.00 | 0.00 | 64 | 999.3 |
| 20260504210046 | 61 | 0 | 1.0 | 1.0 | 0.00 | 0.00 | 0.00 | 64 | 999.3 |
| 20260504205748 | 61 | 45 | 1.0 | 1.0 | 0.00 | 0.00 | 0.00 | 64 | 999.3 |
| 20260504205448 | 61 | 22 | 0.0 | 0.0 | 0.00 | 0.00 | 0.00 | 64 | 999.3 |
| 20260504205148 | 61 | 45 | 1.0 | 1.0 | 0.00 | 0.00 | 0.00 | 64 | 999.3 |
| 20260504204848 | 61 | 45 | 0.0 | 0.0 | 0.00 | 0.00 | 0.00 | 64 | 999.3 |
| 20260504204548 | 61 | 22 | 0.0 | 0.0 | 0.00 | 0.00 | 0.00 | 64 | 999.3 |
| 20260504204248 | 61 | 67 | 0.0 | 0.0 | 0.00 | 0.00 | 0.00 | 63 | 999.3 |
| 20260504203947 | 61 | 22 | 0.0 | 0.0 | 0.00 | 0.00 | 0.00 | 63 | 999.3 |
| 20260504203648 | 61 | 0 | 0.0 | 0.0 | 0.00 | 0.00 | 0.00 | 63 | 999.3 |
| 20260504203047 | 61 | 67 | 0.0 | 0.0 | 0.00 | 0.00 | 0.00 | 63 | 999.3 |
| 20260504202748 | 62 | 22 | 0.0 | 0.0 | 0.00 | 0.00 | 0.00 | 63 | 999.3 |
| 20260504202448 | 62 | 45 | 0.0 | 0.0 | 0.00 | 0.00 | 0.00 | 63 | 999.3 |
| 20260504202146 | 62 | 22 | 1.0 | 1.0 | 0.00 | 0.00 | 0.00 | 62 | 999.3 |
| 20260504201847 | 62 | 45 | 0.0 | 0.0 | 0.00 | 0.00 | 0.00 | 62 | 999.3 |
| 20260504201248 | 62 | 45 | 0.0 | 0.0 | 0.00 | 0.00 | 0.00 | 62 | 999.3 |
| 20260504200947 | 62 | 337 | 0.0 | 0.0 | 0.00 | 0.00 | 0.00 | 62 | 999.3 |
| 20260504200648 | 62 | 22 | 2.0 | 2.0 | 0.00 | 0.00 | 0.00 | 62 | 999.3 |
| 20260504200348 | 62 | 337 | 0.0 | 0.0 | 0.00 | 0.00 | 0.00 | 62 | 999.3 |
| 20260504200047 | 62 | 45 | 0.0 | 0.0 | 0.00 | 0.00 | 0.00 | 61 | 999.5 |
| 20260504195748 | 62 | 45 | 0.0 | 0.0 | 0.00 | 0.00 | 0.00 | 62 | 999.5 |
| 20260504195450 | 63 | 0 | 1.0 | 2.0 | 0.00 | 0.00 | 0.00 | 61 | 999.3 |
| 20260504195147 | 63 | 22 | 0.0 | 0.0 | 0.00 | 0.00 | 0.00 | 61 | 999.5 |
| 20260504194848 | 63 | 0 | 0.0 | 0.0 | 0.00 | 0.00 | 0.00 | 61 | 999.5 |
| 20260504194547 | 63 | 315 | 0.0 | 0.0 | 0.00 | 0.00 | 0.00 | 60 | 999.5 |
| 20260504194248 | 63 | 337 | 0.0 | 0.0 | 0.00 | 0.00 | 0.00 | 60 | 999.8 |
| 20260504193946 | 63 | 45 | 0.0 | 0.0 | 0.00 | 0.00 | 0.00 | 60 | 999.5 |
| 20260504193348 | 63 | 337 | 0.0 | 0.0 | 0.00 | 0.00 | 0.00 | 59 | 999.5 |
| 20260504193048 | 63 | 45 | 0.0 | 0.0 | 0.00 | 0.00 | 0.00 | 59 | 999.5 |
| 20260504192448 | 63 | 0 | 0.0 | 0.0 | 0.00 | 0.00 | 0.00 | 58 | 999.5 |
| 20260504192147 | 63 | 337 | 0.0 | 0.0 | 0.00 | 0.00 | 0.00 | 57 | 999.5 |
| 20260504191847 | 63 | 337 | 0.0 | 0.0 | 0.00 | 0.00 | 0.00 | 57 | 999.5 |
| 20260504191550 | 63 | 67 | 0.0 | 0.0 | 0.00 | 0.00 | 0.00 | 56 | 999.5 |
| 20260504191248 | 63 | 337 | 0.0 | 0.0 | 0.00 | 0.00 | 0.00 | 57 | 999.3 |
| 20260504190948 | 63 | 22 | 0.0 | 0.0 | 0.00 | 0.00 | 0.00 | 57 | 999.5 |
| 20260504190648 | 63 | 45 | 0.0 | 0.0 | 0.00 | 0.00 | 0.00 | 56 | 999.5 |
| 20260504190347 | 63 | 135 | 0.0 | 0.0 | 0.00 | 0.00 | 0.00 | 56 | 999.3 |
| 20260504190047 | 63 | 90 | 0.0 | 0.0 | 0.00 | 0.00 | 0.00 | 57 | 999.5 |
| 20260504185747 | 63 | 90 | 0.0 | 0.0 | 0.00 | 0.00 | 0.00 | 55 | 999.3 |
| 20260504185450 | 63 | 337 | 0.0 | 0.0 | 0.00 | 0.00 | 0.00 | 54 | 999.5 |
| 20260504185148 | 64 | 0 | 0.0 | 0.0 | 0.00 | 0.00 | 0.00 | 53 | 999.3 |
| 20260504184848 | 64 | 337 | 0.0 | 0.0 | 0.00 | 0.00 | 0.00 | 53 | 999.3 |
| 20260504184548 | 64 | 337 | 0.0 | 0.0 | 0.00 | 0.00 | 0.00 | 53 | 999.3 |
| 20260504184248 | 65 | 337 | 0.0 | 0.0 | 0.00 | 0.00 | 0.00 | 53 | 999.3 |
| 20260504183948 | 65 | 315 | 0.0 | 0.0 | 0.00 | 0.00 | 0.00 | 52 | 999.3 |
| 20260504183348 | 65 | 337 | 1.0 | 1.0 | 0.00 | 0.00 | 0.00 | 51 | 999.3 |
| 20260504183047 | 65 | 315 | 0.0 | 0.0 | 0.00 | 0.00 | 0.00 | 52 | 999.3 |
| 20260504182747 | 65 | 0 | 0.0 | 0.0 | 0.00 | 0.00 | 0.00 | 51 | 999.3 |
| 20260504182447 | 66 | 0 | 0.0 | 0.0 | 0.00 | 0.00 | 0.00 | 50 | 999.3 |
| 20260504182147 | 66 | 315 | 0.0 | 0.0 | 0.00 | 0.00 | 0.00 | 51 | 999.3 |
| 20260504181847 | 66 | 315 | 0.0 | 0.0 | 0.00 | 0.00 | 0.00 | 50 | 999.3 |
| 20260504181248 | 67 | 292 | 1.0 | 1.0 | 0.00 | 0.00 | 0.00 | 49 | 999.3 |
| 20260504180948 | 67 | 337 | 3.0 | 3.0 | 0.00 | 0.00 | 0.00 | 50 | 999.3 |
| 20260504180647 | 67 | 292 | 0.0 | 0.0 | 0.00 | 0.00 | 0.00 | 49 | 999.3 |
| 20260504180348 | 67 | 337 | 0.0 | 0.0 | 0.00 | 0.00 | 0.00 | 49 | 999.3 |
| 20260504180047 | 67 | 292 | 0.0 | 0.0 | 0.00 | 0.00 | 0.00 | 48 | 999.3 |
| 20260504175748 | 67 | 270 | 0.0 | 0.0 | 0.00 | 0.00 | 0.00 | 48 | 999.3 |
| 20260504175148 | 67 | 270 | 0.0 | 0.0 | 0.00 | 0.00 | 0.00 | 48 | 999.3 |
| 20260504174847 | 68 | 292 | 0.0 | 0.0 | 0.00 | 0.00 | 0.00 | 48 | 999.3 |
| 20260504174546 | 68 | 225 | 0.0 | 0.0 | 0.00 | 0.00 | 0.00 | 48 | 999.3 |
| 20260504174247 | 68 | 337 | 0.0 | 0.0 | 0.00 | 0.00 | 0.00 | 48 | 999.1 |
| 20260504173948 | 68 | 270 | 3.0 | 3.0 | 0.00 | 0.00 | 0.00 | 47 | 999.1 |
| 20260504173348 | 68 | 337 | 0.0 | 0.0 | 0.00 | 0.00 | 0.00 | 47 | 999.1 |
| 20260504173047 | 69 | 270 | 1.0 | 2.0 | 0.00 | 0.00 | 0.00 | 48 | 999.1 |
| 20260504172748 | 69 | 270 | 1.0 | 1.0 | 0.00 | 0.00 | 0.00 | 49 | 998.8 |
| 20260504172448 | 69 | 337 | 0.0 | 0.0 | 0.00 | 0.00 | 0.00 | 49 | 998.8 |
| 20260504172148 | 69 | 292 | 0.0 | 0.0 | 0.00 | 0.00 | 0.00 | 49 | 998.8 |
| 20260504171847 | 68 | 315 | 0.0 | 0.0 | 0.00 | 0.00 | 0.00 | 48 | 998.8 |
| 20260504170947 | 70 | 315 | 0.0 | 0.0 | 0.00 | 0.00 | 0.00 | 47 | 999.1 |
| 20260504170647 | 70 | 315 | 0.0 | 0.0 | 0.00 | 0.00 | 0.00 | 48 | 999.1 |
| 20260504170347 | 70 | 270 | 2.0 | 2.0 | 0.00 | 0.00 | 0.00 | 47 | 999.3 |
| 20260504160347 | 73 | 225 | 2.0 | 2.0 | 0.00 | 0.00 | 0.00 | 44 | 999.3 |
| 20260504150948 | 74 | 180 | 1.0 | 1.0 | 0.00 | 0.00 | 0.00 | 41 | 999.5 |
| 20260504150347 | 75 | 202 | 0.0 | 0.0 | 0.00 | 0.00 | 0.00 | 40 | 999.5 |
| 20260504141247 | 75 | 157 | 0.0 | 0.0 | 0.00 | 0.00 | 0.00 | 40 | 999.8 |
| 20260504140948 | 76 | 337 | 0.0 | 0.0 | 0.00 | 0.00 | 0.00 | 40 | 999.8 |
| 20260504140647 | 75 | 180 | 3.0 | 3.0 | 0.00 | 0.00 | 0.00 | 40 | 999.8 |
| 20260504130648 | 76 | 337 | 3.0 | 3.0 | 0.00 | 0.00 | 0.00 | 38 | 1000.3 |
| 20260504130348 | 76 | 292 | 4.0 | 4.0 | 0.00 | 0.00 | 0.00 | 37 | 1000.3 |
| 20260504110647 | 73 | 135 | 0.0 | 0.0 | 0.00 | 0.00 | 0.00 | 42 | 1001.3 |
| 20260504110350 | 74 | 337 | 2.0 | 2.0 | 0.00 | 0.00 | 0.00 | 44 | 1001.0 |
| 20260504100346 | 70 | 225 | 5.0 | 5.0 | 0.00 | 0.00 | 0.00 | 47 | 1001.5 |
| 20260504081848 | 65 | 270 | 2.0 | 2.0 | 0.00 | 0.00 | 0.00 | 52 | 1002.0 |
| 20260504081547 | 65 | 337 | 0.0 | 0.0 | 0.00 | 0.00 | 0.00 | 53 | 1002.0 |
| 20260504080947 | 65 | 180 | 0.0 | 0.0 | 0.00 | 0.00 | 0.00 | 53 | 1002.0 |
| 20260504080647 | 65 | 270 | 3.0 | 3.0 | 0.00 | 0.00 | 0.00 | 53 | 1002.0 |
| 20260504080347 | 65 | 247 | 1.0 | 1.0 | 0.00 | 0.00 | 0.00 | 53 | 1001.8 |
| 20260504070347 | 63 | 270 | 0.0 | 0.0 | 0.00 | 0.00 | 0.00 | 57 | 1001.8 |
| 20260504050347 | 52 | 90 | 0.0 | 0.0 | 0.00 | 0.00 | 0.00 | 80 | 1001.5 |
| 20260504045748 | 53 | 90 | 0.0 | 0.0 | 0.00 | 0.00 | 0.00 | 80 | 1001.5 |
| 20260504045448 | 52 | 337 | 0.0 | 0.0 | 0.00 | 0.00 | 0.00 | 80 | 1001.3 |
| 20260504045147 | 52 | 90 | 0.0 | 0.0 | 0.00 | 0.00 | 0.00 | 80 | 1001.3 |
| 20260504044247 | 52 | 112 | 0.0 | 0.0 | 0.00 | 0.00 | 0.00 | 79 | 1001.3 |
| 20260504043947 | 51 | 112 | 0.0 | 0.0 | 0.00 | 0.00 | 0.00 | 79 | 1001.3 |
| 20260504043650 | 51 | 112 | 0.0 | 0.0 | 0.00 | 0.00 | 0.00 | 78 | 1001.3 |
| 20260504043347 | 51 | 112 | 0.0 | 0.0 | 0.00 | 0.00 | 0.00 | 78 | 1001.3 |
| 20260504043048 | 51 | 337 | 0.0 | 0.0 | 0.00 | 0.00 | 0.00 | 78 | 1001.3 |
| 20260504042748 | 51 | 337 | 0.0 | 0.0 | 0.00 | 0.00 | 0.00 | 78 | 1001.3 |
| 20260504042447 | 51 | 112 | 0.0 | 0.0 | 0.00 | 0.00 | 0.00 | 78 | 1001.3 |
| 20260504042148 | 51 | 90 | 0.0 | 0.0 | 0.00 | 0.00 | 0.00 | 78 | 1001.3 |
| 20260504041547 | 50 | 90 | 0.0 | 0.0 | 0.00 | 0.00 | 0.00 | 78 | 1001.3 |
| 20260504041247 | 50 | 90 | 0.0 | 0.0 | 0.00 | 0.00 | 0.00 | 78 | 1001.3 |
| 20260504040948 | 50 | 90 | 0.0 | 0.0 | 0.00 | 0.00 | 0.00 | 78 | 1001.3 |
| 20260504040647 | 50 | 90 | 0.0 | 0.0 | 0.00 | 0.00 | 0.00 | 78 | 1001.3 |
| 20260504040047 | 50 | 337 | 0.0 | 0.0 | 0.00 | 0.00 | 0.00 | 78 | 1001.3 |
| 20260504035748 | 50 | 90 | 0.0 | 0.0 | 0.00 | 0.00 | 0.00 | 77 | 1001.3 |
| 20260504035447 | 50 | 90 | 0.0 | 0.0 | 0.00 | 0.00 | 0.00 | 77 | 1001.3 |
| 20260504035147 | 50 | 90 | 0.0 | 0.0 | 0.00 | 0.00 | 0.00 | 78 | 1001.3 |
| 20260504034848 | 50 | 90 | 0.0 | 0.0 | 0.00 | 0.00 | 0.00 | 77 | 1001.3 |
| 20260504034246 | 50 | 112 | 0.0 | 0.0 | 0.00 | 0.00 | 0.00 | 77 | 1001.0 |
| 20260504033947 | 50 | 112 | 0.0 | 0.0 | 0.00 | 0.00 | 0.00 | 77 | 1001.3 |
| 20260504033647 | 50 | 112 | 0.0 | 0.0 | 0.00 | 0.00 | 0.00 | 77 | 1001.3 |
| 20260504033347 | 50 | 112 | 0.0 | 0.0 | 0.00 | 0.00 | 0.00 | 77 | 1001.3 |
| 20260504033047 | 50 | 112 | 0.0 | 0.0 | 0.00 | 0.00 | 0.00 | 77 | 1001.3 |
| 20260504032447 | 50 | 337 | 0.0 | 0.0 | 0.00 | 0.00 | 0.00 | 77 | 1001.3 |
| 20260504032147 | 50 | 90 | 0.0 | 0.0 | 0.00 | 0.00 | 0.00 | 77 | 1001.3 |
| 20260504031847 | 50 | 90 | 0.0 | 0.0 | 0.00 | 0.00 | 0.00 | 77 | 1001.3 |
| 20260504031547 | 51 | 90 | 0.0 | 0.0 | 0.00 | 0.00 | 0.00 | 77 | 1001.3 |
| 20260504031248 | 51 | 90 | 0.0 | 0.0 | 0.00 | 0.00 | 0.00 | 77 | 1001.3 |
| 20260504030948 | 51 | 90 | 0.0 | 0.0 | 0.00 | 0.00 | 0.00 | 77 | 1001.3 |
| 20260504030647 | 51 | 90 | 0.0 | 0.0 | 0.00 | 0.00 | 0.00 | 77 | 1001.3 |
| 20260504030347 | 51 | 90 | 0.0 | 0.0 | 0.00 | 0.00 | 0.00 | 77 | 1001.0 |
| 20260504030048 | 51 | 90 | 0.0 | 0.0 | 0.00 | 0.00 | 0.00 | 77 | 1001.0 |
| 20260504025447 | 51 | 90 | 0.0 | 0.0 | 0.00 | 0.00 | 0.00 | 77 | 1001.3 |
| 20260504025147 | 51 | 337 | 0.0 | 0.0 | 0.00 | 0.00 | 0.00 | 77 | 1001.3 |
| 20260504024848 | 51 | 90 | 0.0 | 0.0 | 0.00 | 0.00 | 0.00 | 77 | 1001.3 |
| 20260504024548 | 51 | 90 | 0.0 | 0.0 | 0.00 | 0.00 | 0.00 | 77 | 1001.3 |
| 20260504024248 | 51 | 90 | 0.0 | 0.0 | 0.00 | 0.00 | 0.00 | 76 | 1001.3 |
| 20260504023947 | 51 | 90 | 0.0 | 0.0 | 0.00 | 0.00 | 0.00 | 76 | 1001.3 |
| 20260504023646 | 51 | 90 | 0.0 | 0.0 | 0.00 | 0.00 | 0.00 | 75 | 1001.3 |
| 20260504023347 | 51 | 90 | 0.0 | 0.0 | 0.00 | 0.00 | 0.00 | 76 | 1001.3 |
| 20260504023048 | 51 | 90 | 0.0 | 0.0 | 0.00 | 0.00 | 0.00 | 76 | 1001.3 |
| 20260504022748 | 51 | 337 | 0.0 | 0.0 | 0.00 | 0.00 | 0.00 | 76 | 1001.3 |
| 20260504022450 | 51 | 90 | 0.0 | 0.0 | 0.00 | 0.00 | 0.00 | 76 | 1001.3 |
| 20260504022147 | 51 | 90 | 0.0 | 0.0 | 0.00 | 0.00 | 0.00 | 76 | 1001.3 |
| 20260504021848 | 51 | 337 | 0.0 | 0.0 | 0.00 | 0.00 | 0.00 | 76 | 1001.3 |
| 20260504021548 | 51 | 90 | 0.0 | 0.0 | 0.00 | 0.00 | 0.00 | 76 | 1001.3 |
| 20260504021247 | 51 | 90 | 0.0 | 0.0 | 0.00 | 0.00 | 0.00 | 76 | 1001.3 |
| 20260504020647 | 51 | 90 | 0.0 | 0.0 | 0.00 | 0.00 | 0.00 | 75 | 1001.3 |
| 20260504020047 | 51 | 90 | 0.0 | 0.0 | 0.00 | 0.00 | 0.00 | 75 | 1001.3 |
| 20260504015748 | 51 | 90 | 0.0 | 0.0 | 0.00 | 0.00 | 0.00 | 75 | 1001.3 |
| 20260504015448 | 51 | 112 | 0.0 | 0.0 | 0.00 | 0.00 | 0.00 | 75 | 1001.3 |
| 20260504015147 | 51 | 112 | 0.0 | 0.0 | 0.00 | 0.00 | 0.00 | 75 | 1001.3 |
| 20260504014848 | 51 | 112 | 0.0 | 0.0 | 0.00 | 0.00 | 0.00 | 74 | 1001.3 |
| 20260504014548 | 51 | 112 | 0.0 | 0.0 | 0.00 | 0.00 | 0.00 | 74 | 1001.3 |
| 20260504013948 | 51 | 112 | 0.0 | 0.0 | 0.00 | 0.00 | 0.00 | 74 | 1001.0 |
| 20260504013647 | 51 | 90 | 0.0 | 0.0 | 0.00 | 0.00 | 0.00 | 74 | 1001.3 |
| 20260504013347 | 51 | 90 | 0.0 | 0.0 | 0.00 | 0.00 | 0.00 | 74 | 1001.3 |
| 20260504013048 | 51 | 90 | 0.0 | 0.0 | 0.00 | 0.00 | 0.00 | 74 | 1001.3 |
| 20260504012747 | 51 | 90 | 0.0 | 0.0 | 0.00 | 0.00 | 0.00 | 74 | 1001.3 |
| 20260504012447 | 51 | 90 | 0.0 | 0.0 | 0.00 | 0.00 | 0.00 | 73 | 1001.3 |
| 20260504011847 | 52 | 90 | 0.0 | 0.0 | 0.00 | 0.00 | 0.00 | 73 | 1001.5 |
| 20260504011547 | 52 | 90 | 0.0 | 0.0 | 0.00 | 0.00 | 0.00 | 73 | 1001.3 |
| 20260504011247 | 52 | 90 | 0.0 | 0.0 | 0.00 | 0.00 | 0.00 | 73 | 1001.5 |
| 20260504010947 | 52 | 337 | 0.0 | 0.0 | 0.00 | 0.00 | 0.00 | 73 | 1001.3 |
| 20260504010646 | 52 | 90 | 0.0 | 0.0 | 0.00 | 0.00 | 0.00 | 73 | 1001.5 |
| 20260504010048 | 52 | 112 | 0.0 | 0.0 | 0.00 | 0.00 | 0.00 | 73 | 1001.5 |
| 20260504005748 | 52 | 90 | 0.0 | 0.0 | 0.00 | 0.00 | 0.00 | 74 | 1001.3 |
| 20260504005447 | 52 | 67 | 0.0 | 0.0 | 0.00 | 0.00 | 0.00 | 73 | 1001.5 |
| 20260504005148 | 52 | 67 | 0.0 | 0.0 | 0.00 | 0.00 | 0.00 | 74 | 1001.5 |
| 20260504004847 | 52 | 67 | 0.0 | 0.0 | 0.00 | 0.00 | 0.00 | 73 | 1001.5 |
| 20260504004548 | 52 | 67 | 0.0 | 0.0 | 0.00 | 0.00 | 0.00 | 73 | 1001.5 |
| 20260504003948 | 52 | 67 | 0.0 | 0.0 | 0.00 | 0.00 | 0.00 | 73 | 1001.5 |